Location: Góry Miechowskie
(50.3599°N, 20.1803°E)
Time: 23:02:08
(UTC+00:00)

Tiros 1 despin weight - Visible Passes

Search period start: 11 September 2024 00:00
Search period end: 21 September 2024 00:00
Orbit: 573 x 617 km, 48.2° (Epoch: 11 September)

Date Brightness Start Highest point End Pass type
(mag) Time Alt. Az. Time Alt. Az. Time Alt. Az.
11 Sep ? 03:16:21 10° SSW 03:19:58 24° SSE 03:23:36 10° E visible
12 Sep ? 03:24:48 10° SW 03:28:51 33° SSE 03:32:55 10° E visible
13 Sep ? 01:56:08 14° SSE 01:57:31 15° SE 02:00:09 10° ESE visible
13 Sep ? 03:33:29 10° SW 03:37:47 43° SSE 03:42:06 10° E visible
14 Sep ? 02:04:58 20° S 02:06:16 22° SE 02:09:49 10° E visible
15 Sep ? 02:13:45 26° S 02:15:06 31° SSE 02:19:07 10° E visible
16 Sep ? 00:45:53 11° ESE 00:45:53 11° ESE 00:46:09 10° ESE visible
16 Sep ? 02:22:27 31° SSW 02:23:58 41° SSE 02:28:15 10° E visible
17 Sep ? 00:54:33 16° ESE 00:54:33 16° ESE 00:55:51 10° E visible
17 Sep ? 02:31:07 32° SW 02:32:52 52° SSE 02:37:19 10° E visible
18 Sep ? 01:03:10 21° ESE 01:03:10 21° ESE 01:05:08 10° E visible
18 Sep ? 02:39:45 30° WSW 02:41:48 62° S 02:46:19 10° E visible
19 Sep ? 01:11:47 27° ESE 01:11:47 27° ESE 01:14:14 10° E visible
19 Sep ? 02:48:21 27° WSW 02:50:44 67° S 02:55:16 10° E visible
20 Sep ? 01:20:22 34° ESE 01:20:22 34° ESE 01:23:14 10° E visible
20 Sep ? 02:56:57 23° W 02:59:41 68° S 03:04:12 10° E visible
